Time,TemperatureF,DewpointF,PressureIn,WindDirection,WindDirectionDegrees,WindSpeedMPH,WindSpeedGustMPH,Humidity,HourlyPrecipIn,Conditions,Clouds,dailyrainin,SoftwareType,DateUTC
2013-09-18 00:01:00,51.5,48.4,29.62,NNE,22,5.0,7.0,89,0.01,,,0.02,VWS V14.01,2013-09-18 06:01:00,
2013-09-18 00:06:00,51.5,48.4,29.62,NNE,22,0.0,4.0,89,0.01,,,0.00,VWS V14.01,2013-09-18 06:06:00,
2013-09-18 00:11:00,51.6,48.2,29.62,NE,34,4.0,5.0,88,0.01,,,0.00,VWS V14.01,2013-09-18 06:11:00,
2013-09-18 00:16:00,51.7,48.3,29.62,ESE,113,4.0,8.0,88,0.01,,,0.00,VWS V14.01,2013-09-18 06:16:00,
2013-09-18 00:21:00,51.7,48.3,29.62,ESE,116,4.0,8.0,88,0.01,,,0.00,VWS V14.01,2013-09-18 06:21:00,
2013-09-18 00:26:00,51.5,48.1,29.62,ESE,116,0.0,8.0,88,0.01,,,0.00,VWS V14.01,2013-09-18 06:26:00,
2013-09-18 00:31:00,51.5,48.1,29.62,ESE,116,0.0,8.0,88,0.02,,,0.01,VWS V14.01,2013-09-18 06:31:00,
2013-09-18 00:36:00,51.6,48.2,29.62,ESE,116,0.0,0.0,88,0.01,,,0.01,VWS V14.01,2013-09-18 06:36:00,
2013-09-18 00:41:00,51.5,48.1,29.62,ESE,116,0.0,1.0,88,0.01,,,0.01,VWS V14.01,2013-09-18 06:41:00,
2013-09-18 00:46:00,51.5,48.1,29.62,ESE,116,4.0,4.0,88,0.01,,,0.01,VWS V14.01,2013-09-18 06:46:00,
2013-09-18 00:51:00,51.4,48.0,29.62,ESE,116,5.0,6.0,88,0.01,,,0.01,VWS V14.01,2013-09-18 06:51:00,
2013-09-18 00:56:00,51.4,48.0,29.62,WSW,253,5.0,6.0,88,0.01,,,0.01,VWS V14.01,2013-09-18 06:56:00,
2013-09-18 01:01:00,51.5,48.1,29.62,West,264,5.0,6.0,88,0.01,,,0.01,VWS V14.01,2013-09-18 07:01:00,
2013-09-18 01:06:00,51.5,47.8,29.62,West,264,4.0,6.0,87,0.01,,,0.01,VWS V14.01,2013-09-18 07:06:00,
2013-09-18 01:11:00,51.5,47.8,29.62,West,263,5.0,6.0,87,0.02,,,0.02,VWS V14.01,2013-09-18 07:11:00,
2013-09-18 01:16:00,51.5,47.8,29.62,SW,236,7.0,7.0,87,0.02,,,0.02,VWS V14.01,2013-09-18 07:16:00,
2013-09-18 01:21:00,51.6,47.9,29.62,WSW,239,5.0,8.0,87,0.02,,,0.02,VWS V14.01,2013-09-18 07:21:00,
2013-09-18 01:26:00,51.7,48.0,29.62,WSW,240,5.0,8.0,87,0.02,,,0.02,VWS V14.01,2013-09-18 07:26:00,
2013-09-18 01:31:00,51.8,48.4,29.62,SW,236,5.0,8.0,88,0.02,,,0.02,VWS V14.01,2013-09-18 07:31:00,
2013-09-18 01:36:00,51.9,48.5,29.62,WSW,244,5.0,8.0,88,0.01,,,0.02,VWS V14.01,2013-09-18 07:36:00,
2013-09-18 01:41:00,52.0,48.9,29.62,WSW,244,5.0,8.0,89,0.01,,,0.02,VWS V14.01,2013-09-18 07:41:00,
2013-09-18 01:46:00,52.0,48.9,29.62,SW,234,7.0,8.0,89,0.01,,,0.02,VWS V14.01,2013-09-18 07:46:00,
2013-09-18 01:51:00,52.0,48.9,29.62,SW,234,5.0,8.0,89,0.01,,,0.02,VWS V14.01,2013-09-18 07:51:00,
2013-09-18 01:56:00,52.0,48.9,29.62,SW,234,4.0,8.0,89,0.01,,,0.02,VWS V14.01,2013-09-18 07:56:00,
2013-09-18 02:01:00,51.9,48.8,29.62,SW,234,0.0,8.0,89,0.01,,,0.02,VWS V14.01,2013-09-18 08:01:00,
2013-09-18 02:06:00,51.9,48.8,29.62,SW,234,0.0,2.0,89,0.01,,,0.02,VWS V14.01,2013-09-18 08:06:00,
2013-09-18 02:11:00,51.8,48.7,29.62,SW,234,0.0,2.0,89,0.01,,,0.02,VWS V14.01,2013-09-18 08:11:00,
2013-09-18 02:15:00,51.7,48.6,29.62,SW,234,0.0,2.0,89,0.01,,,0.02,VWS V14.01,2013-09-18 08:15:00,
2013-09-18 02:20:00,51.6,48.5,29.62,SW,234,0.0,2.0,89,0.01,,,0.02,VWS V14.01,2013-09-18 08:20:00,
2013-09-18 02:25:00,51.6,48.5,29.62,SW,234,0.0,2.0,89,0.01,,,0.02,VWS V14.01,2013-09-18 08:25:00,
2013-09-18 02:30:00,51.5,48.4,29.62,SW,234,0.0,2.0,89,0.01,,,0.02,VWS V14.01,2013-09-18 08:30:00,
2013-09-18 02:35:00,51.5,48.1,29.62,SW,234,0.0,0.0,88,0.00,,,0.02,VWS V14.01,2013-09-18 08:35:00,
2013-09-18 02:40:00,51.5,48.1,29.62,SW,234,2.0,2.0,88,0.00,,,0.02,VWS V14.01,2013-09-18 08:40:00,
2013-09-18 02:45:00,51.5,48.1,29.62,SW,234,2.0,3.0,88,0.00,,,0.02,VWS V14.01,2013-09-18 08:45:00,
2013-09-18 02:50:00,51.5,48.1,29.62,SW,234,6.0,6.0,88,0.00,,,0.02,VPLive 1.2.5.27,2013-09-18 08:50:00,
2013-09-18 02:55:00,51.5,48.1,29.63,WNW,297,3.0,7.0,88,0.00,,,0.02,VWS V14.01,2013-09-18 08:55:00,
2013-09-18 03:00:00,51.4,48.0,29.63,WNW,288,3.0,8.0,88,0.01,,,0.03,VWS V14.01,2013-09-18 09:00:00,
2013-09-18 03:06:00,51.4,48.0,29.63,WNW,288,0.0,3.0,88,0.01,,,0.03,VPLive 1.2.5.27,2013-09-18 09:06:00,
2013-09-18 03:11:00,51.4,47.7,29.63,WNW,284,5.0,7.0,87,0.01,,,0.03,VWS V14.01,2013-09-18 09:11:00,
2013-09-18 03:16:00,51.1,47.7,29.63,WSW,247,5.0,12.0,88,0.01,,,0.03,VWS V14.01,2013-09-18 09:16:00,
2013-09-18 03:21:00,50.9,47.8,29.62,WSW,244,11.0,12.0,89,0.01,,,0.03,VWS V14.01,2013-09-18 09:21:00,
2013-09-18 03:26:00,50.7,47.6,29.62,SW,227,7.0,15.0,89,0.01,,,0.03,VWS V14.01,2013-09-18 09:26:00,
2013-09-18 03:31:00,50.5,47.4,29.62,SW,227,7.0,15.0,89,0.01,,,0.03,VWS V14.01,2013-09-18 09:31:00,
2013-09-18 03:36:00,50.4,47.3,29.62,SW,236,6.0,13.0,89,0.02,,,0.04,VWS V14.01,2013-09-18 09:36:00,
2013-09-18 03:41:00,50.3,47.2,29.62,WSW,246,7.0,13.0,89,0.02,,,0.04,VWS V14.01,2013-09-18 09:41:00,
2013-09-18 03:46:00,50.1,47.0,29.63,WSW,247,8.0,13.0,89,0.02,,,0.04,VWS V14.01,2013-09-18 09:46:00,
2013-09-18 03:51:00,50.0,46.9,29.62,SW,236,13.0,15.0,89,0.02,,,0.04,VWS V14.01,2013-09-18 09:51:00,
2013-09-18 03:56:00,50.2,46.8,29.63,WSW,256,13.0,16.0,88,0.02,,,0.04,VWS V14.01,2013-09-18 09:56:00,
2013-09-18 04:01:00,50.1,46.7,29.62,WSW,248,14.0,19.0,88,0.02,,,0.04,VWS V14.01,2013-09-18 10:01:00,
2013-09-18 04:06:00,50.1,46.7,29.63,West,263,7.0,14.0,88,0.01,,,0.04,VWS V14.01,2013-09-18 10:06:00,
2013-09-18 04:11:00,49.9,46.5,29.63,WSW,256,15.0,16.0,88,0.01,,,0.04,VWS V14.01,2013-09-18 10:11:00,
2013-09-18 04:16:00,49.9,46.2,29.62,SW,225,8.0,16.0,87,0.01,,,0.04,VWS V14.01,2013-09-18 10:16:00,
2013-09-18 04:21:00,49.9,46.2,29.63,WSW,254,13.0,16.0,87,0.01,,,0.04,VWS V14.01,2013-09-18 10:21:00,
2013-09-18 04:26:00,50.0,46.3,29.62,WSW,252,14.0,18.0,87,0.01,,,0.04,VWS V14.01,2013-09-18 10:26:00,
2013-09-18 04:31:00,50.0,46.3,29.63,WSW,254,11.0,18.0,87,0.01,,,0.04,VWS V14.01,2013-09-18 10:31:00,
2013-09-18 04:36:00,49.9,46.2,29.63,WSW,239,12.0,15.0,87,0.01,,,0.04,VWS V14.01,2013-09-18 10:36:00,
2013-09-18 04:41:00,49.7,46.0,29.63,WSW,251,10.0,15.0,87,0.01,,,0.04,VWS V14.01,2013-09-18 10:41:00,
2013-09-18 04:46:00,49.7,46.0,29.63,West,259,9.0,15.0,87,0.01,,,0.04,VWS V14.01,2013-09-18 10:46:00,
2013-09-18 04:51:00,49.7,46.0,29.63,WSW,248,14.0,18.0,87,0.01,,,0.04,VWS V14.01,2013-09-18 10:51:00,
2013-09-18 04:56:00,49.9,45.9,29.63,WSW,248,12.0,21.0,86,0.01,,,0.04,VWS V14.01,2013-09-18 10:56:00,
2013-09-18 05:01:00,49.9,45.9,29.63,SW,233,14.0,21.0,86,0.01,,,0.04,VWS V14.01,2013-09-18 11:01:00,
2013-09-18 05:06:00,49.8,45.8,29.64,WSW,248,7.0,16.0,86,0.00,,,0.04,VWS V14.01,2013-09-18 11:06:00,
2013-09-18 05:11:00,49.8,45.5,29.64,WSW,252,8.0,16.0,85,0.00,,,0.04,VWS V14.01,2013-09-18 11:11:00,
2013-09-18 05:16:00,49.9,45.6,29.64,WSW,238,10.0,18.0,85,0.00,,,0.04,VWS V14.01,2013-09-18 11:16:00,
2013-09-18 05:21:00,49.8,45.5,29.64,WSW,251,10.0,18.0,85,0.00,,,0.04,VWS V14.01,2013-09-18 11:21:00,
2013-09-18 05:26:00,49.8,45.5,29.65,West,261,11.0,18.0,85,0.00,,,0.04,VWS V14.01,2013-09-18 11:26:00,
2013-09-18 05:31:00,49.6,45.3,29.65,West,279,8.0,18.0,85,0.00,,,0.04,VWS V14.01,2013-09-18 11:31:00,
2013-09-18 05:36:00,49.5,45.5,29.65,WSW,246,12.0,16.0,86,0.00,,,0.04,VWS V14.01,2013-09-18 11:36:00,
2013-09-18 05:41:00,49.4,45.4,29.65,WSW,250,8.0,16.0,86,0.00,,,0.04,VWS V14.01,2013-09-18 11:41:00,
2013-09-18 05:46:00,49.2,45.5,29.66,SW,227,7.0,16.0,87,0.00,,,0.04,VWS V14.01,2013-09-18 11:46:00,
2013-09-18 05:51:00,49.0,45.3,29.66,WSW,242,11.0,16.0,87,0.01,,,0.05,VWS V14.01,2013-09-18 11:51:00,
2013-09-18 05:56:00,49.0,45.3,29.66,WSW,246,9.0,16.0,87,0.01,,,0.05,VWS V14.01,2013-09-18 11:56:00,
2013-09-18 06:01:00,49.0,45.3,29.66,WSW,248,8.0,16.0,87,0.01,,,0.05,VWS V14.01,2013-09-18 12:01:00,
2013-09-18 06:06:00,49.0,45.3,29.66,WSW,246,10.0,15.0,87,0.01,,,0.05,VWS V14.01,2013-09-18 12:06:00,
2013-09-18 06:11:00,48.8,45.4,29.66,WSW,254,7.0,15.0,88,0.01,,,0.05,VWS V14.01,2013-09-18 12:11:00,
2013-09-18 06:16:00,48.7,45.3,29.66,WSW,250,7.0,18.0,88,0.01,,,0.05,VWS V14.01,2013-09-18 12:16:00,
2013-09-18 06:21:00,48.6,45.2,29.67,SSW,209,9.0,18.0,88,0.01,,,0.05,VWS V14.01,2013-09-18 12:21:00,
2013-09-18 06:26:00,48.6,45.2,29.67,WSW,240,7.0,18.0,88,0.01,,,0.05,VWS V14.01,2013-09-18 12:26:00,
2013-09-18 06:31:00,48.6,45.2,29.67,WSW,255,7.0,18.0,88,0.01,,,0.05,VWS V14.01,2013-09-18 12:31:00,
2013-09-18 06:36:00,48.7,45.3,29.67,WSW,246,7.0,11.0,88,0.01,,,0.05,VWS V14.01,2013-09-18 12:36:00,
2013-09-18 06:41:00,48.6,45.2,29.67,WSW,240,8.0,12.0,88,0.02,,,0.06,VWS V14.01,2013-09-18 12:41:00,
2013-09-18 06:46:00,48.5,45.4,29.67,WSW,242,5.0,13.0,89,0.02,,,0.06,VWS V14.01,2013-09-18 12:46:00,
2013-09-18 06:51:00,48.5,45.4,29.68,West,267,4.0,13.0,89,0.02,,,0.06,VWS V14.01,2013-09-18 12:51:00,
2013-09-18 06:56:00,48.4,45.3,29.68,SW,233,10.0,14.0,89,0.02,,,0.06,VWS V14.01,2013-09-18 12:56:00,
2013-09-18 07:01:00,48.5,45.4,29.68,WSW,248,9.0,14.0,89,0.02,,,0.06,VWS V14.01,2013-09-18 13:01:00,
2013-09-18 07:06:00,48.6,45.5,29.68,WSW,250,9.0,11.0,89,0.01,,,0.06,VPLive 1.2.5.27,2013-09-18 13:06:00,
2013-09-18 07:11:00,48.6,45.5,29.68,WSW,250,9.0,14.0,89,0.01,,,0.06,VWS V14.01,2013-09-18 13:11:00,
2013-09-18 07:16:00,48.7,45.6,29.69,WSW,247,6.0,14.0,89,0.01,,,0.06,VWS V14.01,2013-09-18 13:16:00,
2013-09-18 07:21:00,48.7,45.3,29.69,WSW,249,7.0,14.0,88,0.01,,,0.06,VWS V14.01,2013-09-18 13:21:00,
2013-09-18 07:26:00,48.9,45.5,29.69,SW,219,8.0,16.0,88,0.01,,,0.06,VWS V14.01,2013-09-18 13:26:00,
2013-09-18 07:31:00,49.0,45.3,29.69,WSW,253,6.0,16.0,87,0.01,,,0.06,VWS V14.01,2013-09-18 13:31:00,
2013-09-18 07:36:00,48.9,45.2,29.69,WSW,250,3.0,11.0,87,0.01,,,0.06,VWS V14.01,2013-09-18 13:36:00,
2013-09-18 07:41:00,48.7,45.3,29.70,West,263,7.0,11.0,88,0.01,,,0.06,VWS V14.01,2013-09-18 13:41:00,
2013-09-18 07:46:00,48.6,45.2,29.70,West,266,9.0,11.0,88,0.01,,,0.06,VWS V14.01,2013-09-18 13:46:00,
2013-09-18 07:51:00,48.6,45.5,29.70,WSW,251,8.0,12.0,89,0.01,,,0.06,VWS V14.01,2013-09-18 13:51:00,
2013-09-18 07:56:00,48.5,45.4,29.70,West,261,7.0,12.0,89,0.01,,,0.06,VWS V14.01,2013-09-18 13:56:00,
2013-09-18 08:01:00,48.6,45.5,29.71,West,259,8.0,14.0,89,0.01,,,0.06,VWS V14.01,2013-09-18 14:01:00,
2013-09-18 08:06:00,48.6,45.5,29.71,WSW,246,11.0,12.0,89,0.00,,,0.06,VWS V14.01,2013-09-18 14:06:00,
2013-09-18 08:11:00,48.5,45.4,29.71,WSW,257,8.0,12.0,89,0.00,,,0.06,VWS V14.01,2013-09-18 14:11:00,
2013-09-18 08:16:00,48.5,45.4,29.71,SW,232,9.0,15.0,89,0.00,,,0.06,VWS V14.01,2013-09-18 14:16:00,
2013-09-18 08:21:00,48.5,45.4,29.71,West,269,11.0,15.0,89,0.00,,,0.06,VWS V14.01,2013-09-18 14:21:00,
2013-09-18 08:26:00,48.6,45.5,29.72,West,272,10.0,15.0,89,0.00,,,0.06,VWS V14.01,2013-09-18 14:26:00,
2013-09-18 08:31:00,48.5,45.4,29.72,West,272,7.0,15.0,89,0.00,,,0.06,VWS V14.01,2013-09-18 14:31:00,
2013-09-18 08:36:00,48.6,45.5,29.72,WNW,284,12.0,14.0,89,0.00,,,0.06,VWS V14.01,2013-09-18 14:36:00,
2013-09-18 08:41:00,48.6,45.2,29.72,WSW,257,8.0,14.0,88,0.00,,,0.06,VWS V14.01,2013-09-18 14:41:00,
2013-09-18 08:47:00,48.6,45.2,29.72,WSW,252,10.0,15.0,88,0.00,,,0.06,VWS V14.01,2013-09-18 14:47:00,
2013-09-18 08:52:00,48.5,45.4,29.72,SW,236,7.0,15.0,89,0.00,,,0.06,VWS V14.01,2013-09-18 14:52:00,
2013-09-18 08:57:00,48.5,45.4,29.72,WSW,252,10.0,15.0,89,0.00,,,0.06,VWS V14.01,2013-09-18 14:57:00,
2013-09-18 09:02:00,48.5,45.4,29.72,WSW,246,8.0,8.0,89,0.00,,,0.06,VWS V14.01,2013-09-18 15:02:00,
2013-09-18 09:07:00,48.6,45.5,29.72,WSW,250,8.0,12.0,89,0.01,,,0.07,VWS V14.01,2013-09-18 15:07:00,
2013-09-18 09:12:00,48.6,45.2,29.72,WSW,256,11.0,15.0,88,0.01,,,0.07,VWS V14.01,2013-09-18 15:12:00,
2013-09-18 09:17:00,48.7,45.3,29.72,WSW,247,11.0,15.0,88,0.01,,,0.07,VWS V14.01,2013-09-18 15:17:00,
2013-09-18 09:22:00,48.8,45.1,29.72,WNW,292,10.0,15.0,87,0.01,,,0.07,VWS V14.01,2013-09-18 15:22:00,
2013-09-18 09:27:00,48.8,45.1,29.73,WSW,254,4.0,15.0,87,0.01,,,0.07,VWS V14.01,2013-09-18 15:27:00,
2013-09-18 09:32:00,48.7,45.3,29.73,WSW,242,9.0,9.0,88,0.01,,,0.07,VWS V14.01,2013-09-18 15:32:00,
2013-09-18 09:37:00,48.8,45.1,29.73,WSW,252,7.0,11.0,87,0.01,,,0.07,VWS V14.01,2013-09-18 15:37:00,
2013-09-18 09:42:00,48.8,45.1,29.73,West,269,7.0,14.0,87,0.01,,,0.07,VWS V14.01,2013-09-18 15:42:00,
2013-09-18 09:47:00,48.8,45.1,29.74,West,261,8.0,14.0,87,0.01,,,0.07,VWS V14.01,2013-09-18 15:47:00,
2013-09-18 09:52:00,49.0,45.0,29.74,WSW,253,10.0,19.0,86,0.02,,,0.08,VWS V14.01,2013-09-18 15:52:00,
2013-09-18 09:57:00,49.1,44.8,29.74,West,277,6.0,19.0,85,0.02,,,0.08,VWS V14.01,2013-09-18 15:57:00,
2013-09-18 10:01:00,49.1,44.8,29.74,WSW,250,10.0,19.0,85,0.02,,,0.08,VWS V14.01,2013-09-18 16:01:00,
2013-09-18 10:06:00,49.1,44.8,29.74,WSW,250,14.0,15.0,85,0.02,,,0.08,VWS V14.01,2013-09-18 16:06:00,
2013-09-18 10:11:00,49.1,44.8,29.75,West,280,13.0,17.0,85,0.02,,,0.08,VWS V14.01,2013-09-18 16:11:00,
2013-09-18 10:16:00,49.1,44.8,29.75,West,259,9.0,17.0,85,0.02,,,0.08,VWS V14.01,2013-09-18 16:16:00,
2013-09-18 10:21:00,49.2,44.9,29.75,West,259,12.0,17.0,85,0.02,,,0.08,VWS V14.01,2013-09-18 16:21:00,
2013-09-18 10:26:00,49.2,44.9,29.75,WNW,286,11.0,18.0,85,0.02,,,0.08,VWS V14.01,2013-09-18 16:26:00,
2013-09-18 10:31:00,49.3,45.0,29.75,WSW,252,8.0,18.0,85,0.02,,,0.08,VWS V14.01,2013-09-18 16:31:00,
2013-09-18 10:37:00,49.2,44.9,29.75,West,263,10.0,13.0,85,0.01,,,0.08,VWS V14.01,2013-09-18 16:37:00,
2013-09-18 10:42:00,49.2,44.6,29.75,West,259,15.0,16.0,84,0.01,,,0.08,VWS V14.01,2013-09-18 16:42:00,
2013-09-18 10:47:00,49.2,44.6,29.75,West,261,7.0,16.0,84,0.01,,,0.08,VWS V14.01,2013-09-18 16:47:00,
2013-09-18 10:52:00,49.2,44.6,29.76,West,269,11.0,16.0,84,0.01,,,0.08,VWS V14.01,2013-09-18 16:52:00,
2013-09-18 10:58:00,49.3,45.0,29.76,WSW,250,10.0,13.0,85,0.00,,,0.08,VPLive 1.2.5.27,2013-09-18 16:58:00,
2013-09-18 11:04:00,49.3,45.0,29.76,West,267,5.0,7.0,85,0.00,,,0.08,VWS V14.01,2013-09-18 17:04:00,
2013-09-18 11:09:00,49.5,45.2,29.76,WSW,251,5.0,11.0,85,0.00,,,0.08,VPLive 1.2.5.27,2013-09-18 17:09:00,
2013-09-18 11:14:00,49.6,45.0,29.77,West,265,10.0,13.0,84,0.00,,,0.08,VWS V14.01,2013-09-18 17:14:00,
2013-09-18 11:19:00,49.7,45.1,29.77,West,277,7.0,13.0,84,0.00,,,0.08,VWS V14.01,2013-09-18 17:19:00,
2013-09-18 11:24:00,49.8,45.5,29.77,WNW,290,4.0,13.0,85,0.00,,,0.08,VWS V14.01,2013-09-18 17:24:00,
2013-09-18 11:29:00,49.0,44.7,29.77,WNW,298,0.0,13.0,85,0.00,,,0.08,VWS V14.01,2013-09-18 17:29:00,
2013-09-18 11:34:00,48.5,44.8,29.77,WNW,298,1.0,3.0,87,0.00,,,0.08,VWS V14.01,2013-09-18 17:34:00,
2013-09-18 11:40:00,48.3,44.9,29.77,ENE,76,3.0,4.0,88,0.00,,,0.08,VWS V14.01,2013-09-18 17:40:00,
2013-09-18 11:45:00,48.2,44.8,29.77,ESE,108,0.0,7.0,88,0.00,,,0.08,VWS V14.01,2013-09-18 17:45:00,
2013-09-18 11:51:00,48.2,46.0,29.78,SE,132,4.0,9.0,92,0.00,,,0.08,VPLive 1.2.5.27,2013-09-18 17:51:00,
2013-09-18 11:58:00,47.9,44.5,29.78,ESE,109,7.0,11.0,88,0.01,,,0.09,VWS V14.01,2013-09-18 17:58:00,
2013-09-18 12:03:00,47.3,43.9,29.78,ESE,121,6.0,6.0,88,0.01,,,0.09,VWS V14.01,2013-09-18 18:03:00,
2013-09-18 12:13:00,46.9,43.8,29.78,ESE,111,7.0,9.0,89,0.01,,,0.09,VWS V14.01,2013-09-18 18:13:00,
2013-09-18 12:18:00,47.1,44.0,29.79,ENE,59,2.0,7.0,89,0.01,,,0.09,VPLive 1.2.5.27,2013-09-18 18:18:00,
2013-09-18 12:23:00,47.6,44.8,29.79,East,101,4.0,6.0,90,0.01,,,0.09,VPLive 1.2.5.27,2013-09-18 18:23:00,
2013-09-18 12:29:00,48.2,45.4,29.79,East,97,2.0,9.0,90,0.01,,,0.09,VWS V14.01,2013-09-18 18:29:00,
2013-09-18 12:34:00,48.6,45.5,29.80,East,82,7.0,10.0,89,0.01,,,0.09,VWS V14.01,2013-09-18 18:34:00,
2013-09-18 12:39:00,47.9,44.8,29.80,East,86,6.0,10.0,89,0.02,,,0.10,VWS V14.01,2013-09-18 18:39:00,
2013-09-18 12:44:00,47.6,44.5,29.80,East,89,5.0,10.0,89,0.02,,,0.10,VWS V14.01,2013-09-18 18:44:00,
2013-09-18 12:49:00,47.4,44.3,29.80,East,94,7.0,10.0,89,0.02,,,0.10,VWS V14.01,2013-09-18 18:49:00,
2013-09-18 12:54:00,47.6,44.8,29.80,East,101,7.0,10.0,90,0.02,,,0.10,VWS V14.01,2013-09-18 18:54:00,
2013-09-18 12:59:00,47.4,44.6,29.81,ESE,107,6.0,11.0,90,0.02,,,0.10,VWS V14.01,2013-09-18 18:59:00,
2013-09-18 13:04:00,47.0,43.9,29.81,SE,128,8.0,9.0,89,0.01,,,0.10,VPLive 1.2.5.27,2013-09-18 19:04:00,
2013-09-18 13:09:00,46.7,43.9,29.81,ESE,115,6.0,8.0,90,0.01,,,0.10,VPLive 1.2.5.27,2013-09-18 19:09:00,
2013-09-18 13:14:00,46.4,43.6,29.82,ESE,105,8.0,11.0,90,0.01,,,0.10,VWS V14.01,2013-09-18 19:14:00,
2013-09-18 13:19:00,46.3,43.5,29.82,ESE,103,4.0,11.0,90,0.01,,,0.10,VWS V14.01,2013-09-18 19:19:00,
2013-09-18 13:24:00,46.3,43.5,29.82,ESE,111,4.0,11.0,90,0.01,,,0.10,VWS V14.01,2013-09-18 19:24:00,
2013-09-18 13:29:00,46.3,43.5,29.82,SE,138,5.0,11.0,90,0.01,,,0.10,VWS V14.01,2013-09-18 19:29:00,
2013-09-18 13:34:00,46.2,43.4,29.82,ESE,106,5.0,6.0,90,0.01,,,0.10,VWS V14.01,2013-09-18 19:34:00,
2013-09-18 13:39:00,46.2,43.1,29.83,ESE,121,4.0,9.0,89,0.01,,,0.10,VWS V14.01,2013-09-18 19:39:00,
2013-09-18 13:44:00,46.1,43.0,29.83,SE,145,0.0,9.0,89,0.01,,,0.10,VWS V14.01,2013-09-18 19:44:00,
2013-09-18 13:49:00,46.2,43.1,29.83,SE,145,0.0,9.0,89,0.01,,,0.10,VWS V14.01,2013-09-18 19:49:00,
2013-09-18 13:55:00,46.3,43.2,29.83,SE,144,2.0,7.0,89,0.00,,,0.10,VPLive 1.2.5.27,2013-09-18 19:55:00,
2013-09-18 14:00:00,46.4,43.3,29.83,ESE,121,2.0,9.0,89,0.01,,,0.10,VWS V14.01,2013-09-18 20:00:00,
2013-09-18 14:05:00,46.6,43.5,29.84,ESE,121,0.0,2.0,89,0.00,,,0.10,VPLive 1.2.5.27,2013-09-18 20:05:00,
2013-09-18 14:10:00,46.8,43.7,29.84,ESE,121,0.0,2.0,89,0.00,,,0.10,VWS V14.01,2013-09-18 20:10:00,
2013-09-18 14:15:00,46.8,43.7,29.84,ESE,121,0.0,2.0,89,0.00,,,0.10,VWS V14.01,2013-09-18 20:15:00,
2013-09-18 14:20:00,47.1,44.0,29.84,ESE,121,0.0,2.0,89,0.00,,,0.10,VWS V14.01,2013-09-18 20:20:00,
2013-09-18 14:25:00,47.4,44.0,29.84,ESE,121,0.0,2.0,88,0.00,,,0.10,VWS V14.01,2013-09-18 20:25:00,
2013-09-18 14:30:00,47.7,44.3,29.84,ESE,121,0.0,2.0,88,0.01,,,0.11,VWS V14.01,2013-09-18 20:30:00,
2013-09-18 14:35:00,47.8,44.4,29.85,ESE,121,0.0,0.0,88,0.01,,,0.11,VWS V14.01,2013-09-18 20:35:00,
2013-09-18 14:40:00,47.6,44.5,29.85,ESE,121,0.0,2.0,89,0.01,,,0.11,VWS V14.01,2013-09-18 20:40:00,
2013-09-18 14:45:00,47.6,44.5,29.85,ESE,121,0.0,2.0,89,0.01,,,0.11,VWS V14.01,2013-09-18 20:45:00,
2013-09-18 14:50:00,47.7,44.9,29.85,ESE,121,0.0,2.0,90,0.01,,,0.11,VWS V14.01,2013-09-18 20:50:00,
2013-09-18 14:55:00,48.2,45.1,29.85,ESE,121,0.0,2.0,89,0.02,,,0.12,VWS V14.01,2013-09-18 20:55:00,
2013-09-18 15:00:00,48.3,45.2,29.86,ESE,121,0.0,5.0,89,0.02,,,0.12,VWS V14.01,2013-09-18 21:00:00,
2013-09-18 15:05:00,48.2,45.4,29.86,ESE,121,0.0,1.0,90,0.02,,,0.12,VWS V14.01,2013-09-18 21:05:00,
2013-09-18 15:10:00,48.1,45.3,29.86,ESE,121,0.0,1.0,90,0.02,,,0.12,VWS V14.01,2013-09-18 21:10:00,
2013-09-18 15:15:00,48.1,45.3,29.86,ESE,121,1.0,4.0,90,0.02,,,0.12,VWS V14.01,2013-09-18 21:15:00,
2013-09-18 15:20:00,48.1,45.3,29.87,ESE,121,0.0,4.0,90,0.02,,,0.12,VWS V14.01,2013-09-18 21:20:00,
2013-09-18 15:25:00,48.4,45.6,29.87,ESE,121,0.0,4.0,90,0.02,,,0.12,VWS V14.01,2013-09-18 21:25:00,
2013-09-18 15:30:00,48.2,45.4,29.87,ESE,121,5.0,5.0,90,0.02,,,0.12,VWS V14.01,2013-09-18 21:30:00,
2013-09-18 15:35:00,48.1,45.3,29.88,ESE,121,0.0,5.0,90,0.01,,,0.12,VPLive 1.2.5.27,2013-09-18 21:35:00,
2013-09-18 15:40:00,47.9,45.1,29.88,ESE,121,0.0,0.0,90,0.01,,,0.12,VWS V14.01,2013-09-18 21:40:00,
2013-09-18 15:45:00,47.8,45.0,29.88,East,82,5.0,6.0,90,0.01,,,0.12,VWS V14.01,2013-09-18 21:45:00,
2013-09-18 15:50:00,46.9,44.1,29.89,East,91,7.0,11.0,90,0.01,,,0.12,VWS V14.01,2013-09-18 21:50:00,
2013-09-18 15:55:00,46.7,43.9,29.89,ESE,109,6.0,11.0,90,0.01,,,0.12,VWS V14.01,2013-09-18 21:55:00,
2013-09-18 16:00:00,46.6,43.8,29.89,East,101,5.0,11.0,90,0.02,,,0.13,VWS V14.01,2013-09-18 22:00:00,
2013-09-18 16:05:00,46.1,43.3,29.89,ESE,109,7.0,9.0,90,0.01,,,0.13,VWS V14.01,2013-09-18 22:05:00,
2013-09-18 16:10:00,46.1,43.3,29.90,ESE,115,6.0,9.0,90,0.01,,,0.13,VWS V14.01,2013-09-18 22:10:00,
2013-09-18 16:15:00,46.0,43.2,29.90,SE,131,5.0,9.0,90,0.01,,,0.13,VWS V14.01,2013-09-18 22:15:00,
2013-09-18 16:20:00,45.7,42.9,29.90,ESE,113,6.0,9.0,90,0.02,,,0.14,VWS V14.01,2013-09-18 22:20:00,
2013-09-18 16:25:00,45.7,42.9,29.90,ESE,113,2.0,9.0,90,0.02,,,0.14,VWS V14.01,2013-09-18 22:25:00,
2013-09-18 16:30:00,45.7,42.9,29.91,SE,124,6.0,9.0,90,0.02,,,0.14,VWS V14.01,2013-09-18 22:30:00,
2013-09-18 16:35:00,45.5,42.7,29.91,SE,124,4.0,8.0,90,0.02,,,0.14,VWS V14.01,2013-09-18 22:35:00,
2013-09-18 16:40:00,45.6,42.8,29.91,ESE,113,0.0,8.0,90,0.02,,,0.14,VWS V14.01,2013-09-18 22:40:00,
2013-09-18 16:46:00,45.8,42.8,29.92,ESE,113,2.0,8.0,89,0.02,,,0.14,VWS V14.01,2013-09-18 22:46:00,
2013-09-18 16:51:00,46.1,43.0,29.92,ESE,113,1.0,8.0,89,0.02,,,0.14,VWS V14.01,2013-09-18 22:51:00,
2013-09-18 16:58:00,46.3,43.2,29.92,ESE,113,0.0,0.0,89,0.01,,,0.14,VPLive 1.2.5.27,2013-09-18 22:58:00,
2013-09-18 17:03:00,46.5,43.4,29.92,ESE,113,1.0,4.0,89,0.01,,,0.14,VPLive 1.2.5.27,2013-09-18 23:03:00,
2013-09-18 17:08:00,46.7,43.6,29.93,ESE,113,0.0,4.0,89,0.01,,,0.14,VWS V14.01,2013-09-18 23:08:00,
2013-09-18 17:13:00,46.7,43.6,29.93,ESE,113,0.0,1.0,89,0.01,,,0.14,VPLive 1.2.5.27,2013-09-18 23:13:00,
2013-09-18 17:18:00,46.8,43.7,29.93,ESE,113,0.0,4.0,89,0.02,,,0.15,VWS V14.01,2013-09-18 23:18:00,
2013-09-18 17:25:00,47.0,43.9,29.93,ESE,113,0.0,4.0,89,0.02,,,0.15,VWS V14.01,2013-09-18 23:25:00,
2013-09-18 17:31:00,47.1,44.0,29.94,ESE,116,0.0,6.0,89,0.01,,,0.15,VPLive 1.2.5.27,2013-09-18 23:31:00,
2013-09-18 17:37:00,47.1,44.0,29.94,ESE,116,0.0,5.0,89,0.02,,,0.16,VWS V14.01,2013-09-18 23:37:00,
2013-09-18 17:42:00,47.2,44.4,29.94,ESE,116,0.0,5.0,90,0.02,,,0.16,VWS V14.01,2013-09-18 23:42:00,
2013-09-18 17:47:00,47.1,44.3,29.95,ESE,116,0.0,5.0,90,0.02,,,0.16,VWS V14.01,2013-09-18 23:47:00,
2013-09-18 17:52:00,47.1,44.3,29.95,ESE,116,0.0,5.0,90,0.02,,,0.16,VWS V14.01,2013-09-18 23:52:00,
2013-09-18 17:57:00,47.3,44.5,29.95,ESE,116,2.0,5.0,90,0.02,,,0.16,VWS V14.01,2013-09-18 23:57:00,
2013-09-18 18:03:00,47.2,44.4,29.95,ESE,116,0.0,0.0,90,0.02,,,0.16,VWS V14.01,2013-09-19 00:03:00,
2013-09-18 18:08:00,47.1,44.3,29.95,ESE,116,0.0,0.0,90,0.02,,,0.16,VWS V14.01,2013-09-19 00:08:00,
2013-09-18 18:13:00,47.2,44.4,29.96,ESE,116,0.0,0.0,90,0.02,,,0.16,VWS V14.01,2013-09-19 00:13:00,
2013-09-18 18:18:00,47.3,44.5,29.96,ESE,116,0.0,0.0,90,0.02,,,0.16,VWS V14.01,2013-09-19 00:18:00,
2013-09-18 18:24:00,47.4,44.6,29.96,ESE,116,0.0,0.0,90,0.02,,,0.16,VWS V14.01,2013-09-19 00:24:00,
2013-09-18 18:29:00,47.6,44.8,29.96,ESE,116,0.0,0.0,90,0.02,,,0.16,VWS V14.01,2013-09-19 00:29:00,
2013-09-18 18:34:00,47.5,44.7,29.96,ESE,116,0.0,1.0,90,0.02,,,0.17,VWS V14.01,2013-09-19 00:34:00,
2013-09-18 18:42:00,47.3,44.5,29.97,ESE,116,0.0,2.0,90,0.01,,,0.17,VPLive 1.2.5.27,2013-09-19 00:42:00,
2013-09-18 18:47:00,47.3,44.5,29.97,ESE,116,4.0,5.0,90,0.01,,,0.17,VPLive 1.2.5.27,2013-09-19 00:47:00,
2013-09-18 18:52:00,47.1,44.3,29.97,ESE,116,4.0,5.0,90,0.03,,,0.18,VWS V14.01,2013-09-19 00:52:00,
2013-09-18 18:57:00,47.0,44.2,29.97,ESE,116,4.0,5.0,90,0.03,,,0.18,VWS V14.01,2013-09-19 00:57:00,
2013-09-18 19:02:00,46.9,44.1,29.97,SSE,168,4.0,5.0,90,0.02,,,0.18,VWS V14.01,2013-09-19 01:02:00,
2013-09-18 19:08:00,46.8,44.0,29.98,SSE,168,2.0,5.0,90,0.02,,,0.18,VWS V14.01,2013-09-19 01:08:00,
2013-09-18 19:13:00,46.7,43.9,29.98,SW,221,3.0,5.0,90,0.02,,,0.18,VPLive 1.2.5.27,2013-09-19 01:13:00,
2013-09-18 19:18:00,46.7,43.9,29.99,SW,222,4.0,5.0,90,0.02,,,0.18,VPLive 1.2.5.27,2013-09-19 01:18:00,
2013-09-18 19:23:00,46.7,43.9,29.99,SW,222,4.0,5.0,90,0.02,,,0.18,VWS V14.01,2013-09-19 01:23:00,
2013-09-18 19:28:00,46.7,43.9,29.99,SW,222,3.0,5.0,90,0.02,,,0.18,VWS V14.01,2013-09-19 01:28:00,
2013-09-18 19:33:00,46.7,43.6,29.99,SW,222,3.0,4.0,89,0.01,,,0.18,VWS V14.01,2013-09-19 01:33:00,
2013-09-18 19:39:00,46.6,43.5,29.99,SW,222,4.0,5.0,89,0.01,,,0.18,VPLive 1.2.5.27,2013-09-19 01:39:00,
2013-09-18 19:43:00,46.6,43.5,29.99,SW,222,4.0,5.0,89,0.01,,,0.18,VWS V14.01,2013-09-19 01:43:00,
2013-09-18 19:49:00,46.6,43.5,30.00,SW,223,5.0,6.0,89,0.01,,,0.18,VWS V14.01,2013-09-19 01:49:00,
2013-09-18 19:54:00,46.4,43.3,30.00,SW,225,6.0,8.0,89,0.02,,,0.19,VWS V14.01,2013-09-19 01:54:00,
2013-09-18 19:59:00,46.3,43.2,30.00,SW,227,5.0,8.0,89,0.02,,,0.19,VWS V14.01,2013-09-19 01:59:00,
2013-09-18 20:04:00,46.3,43.2,30.00,SW,225,7.0,9.0,89,0.01,,,0.19,VPLive 1.2.5.27,2013-09-19 02:04:00,
2013-09-18 20:10:00,46.3,43.2,30.01,SW,229,5.0,9.0,89,0.02,,,0.20,VWS V14.01,2013-09-19 02:10:00,
2013-09-18 20:15:00,46.3,43.2,30.01,SW,219,4.0,9.0,89,0.02,,,0.20,VWS V14.01,2013-09-19 02:15:00,
2013-09-18 20:20:00,46.3,43.2,30.01,SW,219,6.0,9.0,89,0.02,,,0.20,VWS V14.01,2013-09-19 02:20:00,
2013-09-18 20:25:00,46.3,43.2,30.02,SW,223,6.0,9.0,89,0.02,,,0.20,VWS V14.01,2013-09-19 02:25:00,
2013-09-18 20:31:00,46.3,43.2,30.02,SW,236,4.0,9.0,89,0.02,,,0.20,VWS V14.01,2013-09-19 02:31:00,
2013-09-18 20:37:00,46.3,43.2,30.02,SW,236,4.0,5.0,89,0.02,,,0.20,VWS V14.01,2013-09-19 02:37:00,
2013-09-18 20:43:00,46.4,43.6,30.03,SW,236,5.0,6.0,90,0.02,,,0.20,VWS V14.01,2013-09-19 02:43:00,
2013-09-18 20:48:00,46.3,43.5,30.03,SW,232,4.0,7.0,90,0.02,,,0.20,VWS V14.01,2013-09-19 02:48:00,
2013-09-18 20:53:00,46.3,43.5,30.04,SW,221,3.0,7.0,90,0.01,,,0.20,VPLive 1.2.5.27,2013-09-19 02:53:00,
2013-09-18 20:58:00,46.2,43.4,30.04,SW,233,6.0,7.0,90,0.01,,,0.20,VPLive 1.2.5.27,2013-09-19 02:58:00,
2013-09-18 21:03:00,46.2,43.4,30.04,WSW,248,5.0,6.0,90,0.01,,,0.20,VWS V14.01,2013-09-19 03:03:00,
2013-09-18 21:08:00,46.1,43.3,30.04,SW,234,5.0,8.0,90,0.01,,,0.20,VPLive 1.2.5.27,2013-09-19 03:08:00,
2013-09-18 21:13:00,46.1,43.3,30.04,SW,227,5.0,8.0,90,0.01,,,0.21,VPLive 1.2.5.27,2013-09-19 03:13:00,
2013-09-18 21:18:00,45.9,43.1,30.04,SW,224,7.0,8.0,90,0.01,,,0.21,VPLive 1.2.5.27,2013-09-19 03:18:00,
2013-09-18 21:23:00,46.0,43.2,30.05,SW,229,5.0,8.0,90,0.01,,,0.21,VPLive 1.2.5.27,2013-09-19 03:23:00,
2013-09-18 21:28:00,46.0,43.2,30.05,SW,221,7.0,9.0,90,0.02,,,0.21,VWS V14.01,2013-09-19 03:28:00,
2013-09-18 21:34:00,46.0,43.2,30.05,SW,225,4.0,8.0,90,0.01,,,0.21,VPLive 1.2.5.27,2013-09-19 03:34:00,
2013-09-18 21:39:00,45.9,43.1,30.05,SW,225,6.0,8.0,90,0.02,,,0.22,VPLive 1.2.5.27,2013-09-19 03:39:00,
2013-09-18 21:44:00,45.9,43.1,30.06,SW,223,4.0,8.0,90,0.02,,,0.22,VWS V14.01,2013-09-19 03:44:00,
2013-09-18 21:50:00,45.8,43.0,30.06,SW,234,7.0,9.0,90,0.02,,,0.22,VPLive 1.2.5.27,2013-09-19 03:50:00,
2013-09-18 21:57:00,45.9,43.1,30.06,SW,223,8.0,10.0,90,0.02,,,0.22,VPLive 1.2.5.27,2013-09-19 03:57:00,
2013-09-18 22:01:00,45.9,43.1,30.06,SW,229,5.0,11.0,90,0.02,,,0.22,VPLive 1.2.5.27,2013-09-19 04:01:00,
2013-09-18 22:04:00,45.8,43.0,30.06,SW,232,8.0,9.0,90,0.02,,,0.22,VPLive 1.2.5.27,2013-09-19 04:04:00,
2013-09-18 22:05:00,45.8,43.0,30.06,SW,231,6.0,8.0,90,0.02,,,0.22,VWS V14.01,2013-09-19 04:05:00,
2013-09-18 22:06:00,45.8,43.0,30.06,SW,231,4.0,8.0,90,0.02,,,0.22,VWS V14.01,2013-09-19 04:06:00,
2013-09-18 22:09:00,45.8,43.0,30.06,SW,220,9.0,9.0,90,0.02,,,0.22,VWS V14.01,2013-09-19 04:09:00,
2013-09-18 22:14:00,45.8,43.0,30.06,SW,219,5.0,10.0,90,0.02,,,0.22,VWS V14.01,2013-09-19 04:14:00,
2013-09-18 22:19:00,45.9,42.8,30.07,SW,230,6.0,10.0,89,0.02,,,0.22,VWS V14.01,2013-09-19 04:19:00,
2013-09-18 22:24:00,45.9,42.8,30.07,WSW,237,4.0,10.0,89,0.02,,,0.22,VWS V14.01,2013-09-19 04:24:00,
2013-09-18 22:29:00,45.8,42.8,30.07,WSW,237,3.0,10.0,89,0.02,,,0.22,VWS V14.01,2013-09-19 04:29:00,
2013-09-18 22:34:00,45.7,42.9,30.07,WSW,237,2.0,3.0,90,0.01,,,0.22,VWS V14.01,2013-09-19 04:34:00,
2013-09-18 22:39:00,45.6,42.8,30.08,WSW,237,3.0,4.0,90,0.02,,,0.23,VWS V14.01,2013-09-19 04:39:00,
2013-09-18 22:44:00,45.5,42.7,30.08,WSW,237,0.0,4.0,90,0.02,,,0.23,VWS V14.01,2013-09-19 04:44:00,
2013-09-18 22:49:00,45.5,42.7,30.08,WSW,237,2.0,4.0,90,0.02,,,0.23,VWS V14.01,2013-09-19 04:49:00,
2013-09-18 22:54:00,45.4,42.6,30.08,WSW,237,0.0,4.0,90,0.02,,,0.23,VWS V14.01,2013-09-19 04:54:00,
2013-09-18 22:59:00,45.5,42.7,30.08,WSW,237,0.0,4.0,90,0.02,,,0.23,VWS V14.01,2013-09-19 04:59:00,
2013-09-18 23:04:00,45.5,42.7,30.08,WSW,237,0.0,1.0,90,0.02,,,0.24,VWS V14.01,2013-09-19 05:04:00,
2013-09-18 23:09:00,45.4,42.6,30.09,WSW,237,6.0,6.0,90,0.02,,,0.24,VPLive 1.2.5.27,2013-09-19 05:09:00,
2013-09-18 23:14:00,45.4,42.6,30.09,WSW,238,5.0,6.0,90,0.02,,,0.24,VWS V14.01,2013-09-19 05:14:00,
2013-09-18 23:19:00,45.4,42.6,30.09,WSW,238,5.0,6.0,90,0.02,,,0.24,VWS V14.01,2013-09-19 05:19:00,
2013-09-18 23:24:00,45.4,42.6,30.09,WSW,238,3.0,6.0,90,0.02,,,0.24,VWS V14.01,2013-09-19 05:24:00,
2013-09-18 23:29:00,45.4,42.6,30.09,WSW,238,0.0,6.0,90,0.02,,,0.24,VWS V14.01,2013-09-19 05:29:00,
2013-09-18 23:34:00,45.4,42.6,30.09,WSW,238,0.0,0.0,90,0.02,,,0.24,VWS V14.01,2013-09-19 05:34:00,
2013-09-18 23:39:00,45.4,42.3,30.10,WSW,238,0.0,1.0,89,0.02,,,0.24,VWS V14.01,2013-09-19 05:39:00,
2013-09-18 23:44:00,45.4,42.3,30.10,WSW,238,0.0,1.0,89,0.02,,,0.24,VWS V14.01,2013-09-19 05:44:00,
2013-09-18 23:49:00,45.4,42.3,30.10,WSW,238,0.0,1.0,89,0.02,,,0.24,VWS V14.01,2013-09-19 05:49:00,
2013-09-18 23:54:00,45.4,42.3,30.09,WSW,238,1.0,3.0,89,0.02,,,0.24,VWS V14.01,2013-09-19 05:54:00,
2013-09-18 23:59:00,45.3,42.3,30.10,WSW,238,0.0,3.0,89,0.02,,,0.24,VWS V14.01,2013-09-19 05:59:00,